EHI
0 0 0 0 0 0 0 0 0 0 0 0 0 0 0 0 0 0 0 0 0 0 0 0 0 0 0 0 1 2 2 1 0 0 0 0 0 1 1 1 0 0 0
0 0 0 0 0 0 0 0 0 0 0 0 0 0 0 0 0 0 0 0 0 0 0 0 0 0 0 0 0 1 1 1 0 0 0 0 0 0 0 0 0 0 0
0 0 0 0 0 0 0 0 0 0 0 0 0 0 0 0 0 0 0 0 0 0 0 0 0 0 0 0 0 0 0 0 0 0 0 0 0 0 0 0 0 0 0
0 0 0 0 0 0 0 0 0 0 0 0 0 0 0 0 0 0 0 0 0 0 0 0 0 0 0 0 0 0 0 0 0 0 0 0 0 0 0 0 0 0 0
0 0 0 0 0 0 0 0 0 0 0 0 0 0 0 0 0 0 0 0 0 0 0 0 0 0 0 0 0 0 0 0 0 0 0 0 0 0 0 0 0 0 1
0 0 0 0 0 0 0 0 0 0 0 0 0 0 0 0 0 0 0 0 0 0 0 0 0 0 0 0 0 0 0 0 0 0 0 0 0 0 0 0 0 0 1
0 0 0 0 0 0 0 0 0 0 0 0 0 0 0 0 0 0 0 0 0 0 0 0 0 0 0 0 0 0 0 0 0 0 0 0 0 0 0 0 0 0 1
0 0 0 0 0 0 0 0 0 0 0 0 0 0 0 0 0 0 0 0 0 0 0 0 0 0 0 0 0 0 0 0 0 0 0 0 0 0 0 0 0 0 0
0 0 0 0 0 0 0 0 0 0 0 0 0 0 0 0 0 0 0 0 0 0 0 0 0 0 0 0 0 0 0 0 0 0 0 0 0 0 0 0 0 0 0
0 0 0 0 0 0 0 0 0 0 0 0 0 0 0 0 0 0 0 0 0 0 0 0 0 0 0 0 0 0 0 0 0 1 0 0 1 1 1 0 0 0 0
0 0 0 0 0 0 0 0 0 0 0 0 0 0 0 0 0 0 0 0 0 0 0 0 0 0 0 0 0 0 0 0 0 0 0 0 1 2 1 0 0 0 0
0 0 0 0 0 0 0 0 0 0 0 0 0 0 0 0 0 0 0 0 0 0 0 0 0 0 0 0 0 0 0 0 0 0 0 0 1 1 1 0 0 0 0
0 0 0 0 0 0 0 0 0 0 0 0 0 0 0 0 0 0 0 0 0 0 0 0 0 0 0 0 0 0 0 0 0 0 0 0 0 0 0 0 0 0 0
0 0 0 0 0 0 0 0 0 0 0 0 0 0 0 0 0 0 0 0 0 0 0 0 0 0 0 0 0 0 0 0 0 0 0 0 0 0 0 0 0 0 0
0 0 0 0 0 0 0 0 0 0 0 0 0 0 0 0 0 0 0 0 0 0 0 0 0 0 0 0 0 0 0 0 0 0 0 0 0 0 0 0 0 0 0
0 0 0 0 0 0 0 0 0 0 0 0 0 0 0 0 0 0 0 0 0 0 0 0 0 0 0 0 0 0 0 0 0 0 0 0 0 0 0 0 0 0 0
0 0 0 0 0 0 0 0 0 0 0 0 0 0 0 0 0 0 0 0 0 0 0 0 0 0 0 0 0 0 0 0 0 0 0 0 0 0 0 0 0 0 0
0 0 0 0 0 0 0 0 0 0 0 0 0 0 0 0 0 0 0 0 0 0 0 0 0 0 0 0 0 0 0 0 0 0 0 0 0 0 0 0 0 0 0
0 0 0 0 0 0 0 0 0 0 0 0 0 0 0 0 0 0 0 0 0 0 0 0 0 0 0 0 0 0 0 0 0 0 0 0 0 0 0 0 0 0 0
0 0 0 0 0 0 0 0 0 0 0 0 0 0 0 0 0 0 0 0 0 0 0 0 0 0 0 0 0 0 0 0 0 0 0 0 0 0 0 0 0 0 0
0 0 0 0 0 0 0 0 0 0 0 0 0 0 0 0 0 0 0 0 0 0 0 0 0 0 0 0 0 0 0 0 0 0 0 0 0 0 0 0 0 0 0
0 0 0 0 0 0 0 0 0 0 0 0 0 0 0 0 0 0 0 0 0 0 0 0 0 0 0 0 0 0 0 0 0 0 0 0 0 0 0 0 0 0 0
0 0 0 0 0 0 0 0 0 0 0 0 0 0 0 0 0 0 0 0 0 0 0 0 0 0 0 0 0 0 0 0 0 0 0 0 0 0 0 0 0 0 0
0 0 0 0 0 0 0 0 0 0 0 0 0 0 0 0 0 0 0 0 0 0 0 0 0 0 0 0 0 0 0 0 0 0 0 0 0 0 0 0 0 0 0
0 0 0 0 0 0 0 0 0 0 0 0 0 0 0 0 0 0 0 0 0 0 0 0 0 0 0 0 0 0 0 0 0 0 0 0 0 0 0 0 0 0 0
0 0 0 0 0 0 0 0 0 0 0 0 0 0 0 0 0 0 0 0 0 0 0 0 0 0 0 0 0 0 0 0 0 0 0 0 0 0 0 0 0 0 0
Wind_Speed
2 2 2 2 2 2 3 3 3 5 5 4 4 5 4 4 3 3 2 8 9 8 9 8 8 8 8 8 8 8 8 8 7 7 7 7 7 7 7 7 7 7 6
2 2 3 3 3 2 3 3 4 4 4 4 4 4 4 3 3 3 3 4 7 8 8 8 8 7 7 7 8 7 7 7 7 7 7 7 7 7 7 7 7 6 6
3 3 3 3 2 3 3 3 4 4 4 4 4 4 3 3 3 3 3 2 3 5 7 7 7 7 6 6 6 6 6 6 7 7 7 6 6 6 6 6 6 5 5
4 4 3 2 2 3 3 3 3 4 3 3 3 2 2 2 3 3 2 2 2 2 4 6 6 6 5 5 5 5 5 6 6 6 6 6 6 6 6 6 6 5 5
4 3 3 2 3 3 2 3 3 2 3 2 2 2 2 2 2 2 2 2 1 1 2 3 5 5 5 4 4 4 5 6 6 6 6 6 6 6 6 6 5 5 5
3 3 2 2 3 3 2 2 2 2 2 1 2 3 2 1 1 1 1 1 1 1 1 2 2 3 4 4 3 4 5 6 5 5 5 6 6 6 6 6 6 5 5
3 3 3 2 2 2 2 2 2 2 1 2 2 2 3 2 2 1 1 1 1 1 1 1 1 1 2 4 3 2 4 4 5 5 5 6 6 6 6 6 6 5 5
2 3 3 2 2 2 2 2 2 2 0 1 2 2 2 3 3 2 1 1 1 1 1 1 1 1 1 1 2 2 2 3 4 4 5 5 5 5 5 6 6 6 6
2 2 3 3 2 2 2 2 2 3 1 0 1 3 3 2 1 2 2 1 1 1 0 1 1 1 1 1 1 2 1 2 3 4 5 5 5 5 5 5 5 6 6
1 1 2 3 2 2 2 1 2 2 2 1 1 0 2 3 2 0 2 2 1 1 0 1 1 0 1 1 1 2 2 1 2 3 4 4 4 5 5 5 5 5 5
1 1 1 2 2 1 1 1 1 1 2 2 1 0 1 1 2 2 1 2 2 1 0 0 1 1 1 1 0 1 3 3 2 3 3 4 4 5 5 5 4 4 4
1 1 1 1 1 1 2 2 1 2 1 1 1 1 1 1 1 2 2 1 1 1 1 0 1 1 1 1 1 2 2 3 3 3 2 2 3 5 5 5 5 4 4
0 1 0 0 0 1 1 1 1 1 2 2 2 1 1 1 2 2 2 1 0 1 1 1 1 1 1 1 0 2 2 2 3 3 3 3 3 3 4 4 4 4 4
2 1 1 1 1 1 1 1 1 1 1 2 2 1 1 1 1 2 3 3 1 1 1 1 1 1 1 1 1 2 1 2 2 2 2 2 3 3 3 3 3 3 3
2 2 1 1 1 1 1 1 1 1 1 1 1 1 1 1 1 1 2 3 4 2 2 2 1 1 1 1 2 1 1 2 3 2 2 2 2 2 2 3 2 2 3
2 2 2 1 1 1 1 1 1 0 1 1 1 0 0 0 0 1 1 2 2 3 2 2 2 1 2 2 3 2 1 2 2 2 2 2 2 2 2 2 2 3 3
3 3 3 2 1 1 1 1 1 1 1 0 0 1 1 0 0 0 1 1 1 2 3 1 1 0 1 2 1 1 0 0 0 2 2 2 2 2 2 3 3 3 3
3 3 2 2 2 2 1 2 2 1 2 1 1 1 1 0 1 0 1 1 1 2 3 2 1 0 1 1 1 1 1 1 0 1 2 2 2 2 3 3 3 3 3
3 2 2 2 2 2 2 2 2 2 2 2 2 1 1 1 1 0 1 1 1 1 1 2 1 1 0 0 1 0 0 1 1 1 2 2 3 3 3 3 3 3 3
2 2 2 2 2 2 2 2 2 2 2 2 2 2 2 2 2 2 1 1 1 1 1 2 1 1 0 0 1 0 1 1 1 1 1 1 2 3 3 4 4 4 4
2 2 2 1 1 1 1 2 2 2 2 1 1 1 2 1 1 1 1 2 2 2 1 1 1 1 1 1 1 1 1 1 2 1 1 1 1 1 2 3 4 4 5
1 1 1 1 1 1 0 2 3 2 2 2 1 1 1 1 1 1 1 2 3 3 3 2 2 2 2 2 1 1 1 0 2 1 0 2 1 1 2 1 3 4 4
1 1 1 1 1 2 1 2 2 2 2 2 2 2 1 1 0 1 1 1 1 2 4 4 4 4 3 4 3 2 2 2 3 2 1 2 1 2 2 2 2 2 3
1 1 1 1 1 2 1 2 2 2 2 2 3 3 2 1 1 2 2 1 0 0 1 2 3 3 3 3 4 4 3 1 0 1 1 1 1 1 1 1 2 2 2
1 1 1 1 1 2 2 1 2 1 1 2 2 2 2 2 2 3 3 2 1 1 1 0 0 1 1 2 3 2 2 1 1 2 0 1 1 1 1 1 1 1 1
1 1 1 1 1 2 2 1 1 1 1 1 1 1 2 2 2 4 3 3 2 1 1 1 1 2 1 1 3 3 4 3 2 2 1 1 1 0 1 1 1 0 0
Wind_Direction
95 88 81 73 67 66 71 67 66 79 81 80 81 86 84 75 75 70 74 90 95 99 99 95 96 100 100 98 93 91 90 91 93 96 94 94 94 93 91 92 91 90 89
98 94 80 69 67 68 66 74 79 81 78 75 72 72 76 74 71 74 63 78 88 95 98 96 93 97 99 99 94 91 90 89 94 99 96 93 95 96 92 90 91 90 87
99 97 89 80 75 78 76 73 69 70 74 71 65 63 66 67 72 75 69 60 69 87 94 95 92 92 100 103 100 98 96 97 99 97 98 98 99 98 97 93 88 88 91
92 93 95 95 88 82 80 80 72 71 67 68 63 58 60 60 65 74 73 65 50 59 72 81 85 90 96 104 106 104 103 106 105 101 98 97 98 96 98 95 89 85 91
94 101 104 106 95 83 83 99 83 92 88 77 73 59 50 59 60 77 72 71 68 62 56 65 71 75 81 92 107 108 111 117 115 108 102 102 101 101 102 99 93 89 91
95 101 103 103 99 92 84 92 96 78 95 102 82 56 21 29 49 67 94 82 78 89 74 56 42 41 56 69 92 116 121 122 120 116 112 112 109 105 105 102 96 91 94
100 105 103 103 100 109 126 123 106 89 78 99 77 37 9 15 26 15 50 82 86 94 95 76 51 35 25 38 49 102 127 131 130 126 124 120 116 110 106 105 101 96 99
107 112 108 107 113 110 108 112 112 110 135 137 120 97 28 359 355 3 15 70 80 81 91 115 84 74 41 18 19 58 127 149 141 135 136 134 130 120 113 105 101 98 99
91 114 124 126 131 129 140 145 133 128 150 275 160 144 144 200 310 339 355 20 44 75 100 130 120 90 71 41 9 17 113 152 156 152 146 141 138 134 123 112 104 98 96
74 101 129 135 140 136 145 167 140 143 138 147 338 77 165 160 153 320 332 349 18 69 93 134 135 134 89 65 34 46 78 111 157 163 156 151 148 146 138 130 119 109 103
48 77 117 140 153 158 163 148 131 135 141 154 170 135 85 84 123 144 229 316 354 347 338 175 151 130 112 100 76 70 77 83 91 150 166 162 157 153 145 139 131 122 112
351 24 87 143 178 177 177 175 168 159 162 152 160 156 153 157 166 150 168 215 285 315 340 358 149 154 142 128 151 112 97 89 81 92 112 127 148 156 153 149 142 132 122
281 283 154 139 179 204 191 175 167 181 176 167 186 191 181 192 168 152 145 161 191 304 337 343 271 183 163 129 139 128 119 112 97 85 83 88 111 134 145 144 138 133 128
212 216 181 153 155 157 158 155 166 212 178 185 197 183 176 212 172 164 161 150 136 345 336 281 307 246 179 165 175 146 125 126 116 105 94 91 104 114 122 133 141 144 147
204 186 172 148 159 151 161 148 145 219 165 181 209 186 174 228 185 168 154 155 154 173 239 252 252 249 202 175 171 143 155 143 139 130 126 121 116 123 127 126 130 134 138
199 176 177 171 167 168 158 139 152 215 161 199 191 142 193 239 178 144 158 166 158 158 195 228 224 220 192 177 172 166 186 162 157 152 148 142 142 148 153 152 154 154 149
192 187 191 190 195 201 192 141 183 162 166 205 223 168 234 148 115 108 123 144 148 145 158 232 245 220 160 166 158 168 186 152 176 174 182 175 165 160 161 163 157 151 150
197 197 185 193 212 213 195 180 197 187 179 186 224 183 248 174 123 112 127 140 160 158 148 171 218 175 174 181 175 181 194 188 215 213 201 194 190 182 174 170 165 160 158
187 187 171 189 215 214 203 206 202 199 191 200 199 187 227 157 169 202 163 158 156 133 129 149 182 178 76 82 108 57 18 346 272 231 205 209 206 203 191 185 177 176 178
167 181 184 199 216 213 207 208 196 202 192 200 203 195 195 184 193 203 182 178 148 120 122 137 147 142 125 348 109 119 351 339 320 330 328 233 215 216 213 206 202 203 202
164 176 158 162 215 206 201 177 185 190 184 188 201 208 207 206 229 209 191 179 151 142 143 147 159 134 160 161 192 196 202 308 322 320 331 311 283 258 242 230 223 221 217
152 139 153 163 190 264 169 168 175 179 182 176 186 229 245 228 239 219 180 162 163 162 174 171 184 195 215 207 186 182 172 188 282 283 196 285 266 257 257 247 245 232 228
157 146 189 196 224 254 194 152 162 162 177 193 191 191 239 295 208 191 194 139 179 180 172 173 184 207 206 205 184 192 202 202 230 246 157 267 272 256 257 253 235 227 233
173 192 220 233 267 298 252 161 142 152 175 200 197 186 186 221 206 152 143 121 74 282 205 181 192 212 215 199 193 196 196 196 275 285 128 230 276 269 281 263 221 202 210
184 215 228 224 247 294 300 199 144 162 170 206 203 188 185 191 199 147 140 147 108 333 343 48 209 206 195 182 162 136 141 147 260 273 179 176 259 291 299 290 283 209 190
193 186 222 239 235 270 306 192 151 151 153 238 234 228 213 181 179 156 157 161 178 241 302 358 354 340 307 197 177 180 179 180 192 241 227 169 218 196 295 300 327 353 301